FW6636 Weather Reports


time (UTC)temp
F
wind
direction
speed
knots
gust
knots
rain 1hr
in
rain 24hr
in
rain mn
in
humidity
%
barometer
mb
20260831230112 71 0 0.0 0.0 0.00 0.00 0.00 89 1019.1
20260831225555 71 0 0.0 0.0 0.00 0.00 0.00 89 1019.3
20260831225053 71 0 0.0 0.0 0.00 0.00 0.00 88 1019.3
20260831224557 71 0 0.0 0.9 0.00 0.00 0.00 88 1019.3
20260831224053 71 0 0.0 0.9 0.00 0.00 0.00 88 1019.3
20260831223550 71 0 0.0 0.9 0.00 0.00 0.00 87 1019.2
20260831223106 71 0 0.0 1.7 0.00 0.00 0.00 88 1019.3
20260831222553 71 0 0.0 1.7 0.00 0.00 0.00 87 1019.2
20260831222049 71 0 0.0 0.9 0.00 0.00 0.00 87 1019.4
20260831221605 72 0 0.0 0.9 0.00 0.00 0.00 87 1019.4
20260831221051 72 0 0.0 0.9 0.00 0.00 0.00 87 1019.5
20260831220552 71 0 0.0 0.9 0.00 0.00 0.00 87 1019.5
20260831220121 72 0 0.0 0.0 0.00 0.00 0.00 88 1019.5
20260831215556 71 0 0.0 0.9 0.00 0.00 0.00 88 1019.5
20260831215050 71 0 0.0 0.9 0.00 0.00 0.00 87 1019.2
20260831214605 71 0 0.0 0.9 0.00 0.00 0.00 87 1019.3
20260831214052 71 0 0.0 0.9 0.00 0.00 0.00 87 1019.5
20260831213552 71 0 0.0 0.9 0.00 0.00 0.00 87 1019.5
20260831213123 71 0 0.0 2.6 0.00 0.00 0.00 87 1019.6
20260831212553 71 0 0.0 3.5 0.00 0.00 0.00 87 1019.6
20260831212054 71 0 0.0 3.5 0.00 0.00 0.00 86 1019.4
20260831211623 71 181 0.0 3.5 0.00 0.00 0.00 86 1019.6
20260831211052 71 0 0.9 3.5 0.00 0.00 0.00 86 1019.8
20260831210550 71 181 0.9 3.5 0.00 0.00 0.00 85 1019.7
20260831210127 71 189 1.7 3.5 0.00 0.00 0.00 85 1019.8
20260831205553 72 0 0.0 1.7 0.00 0.00 0.00 85 1019.8
20260831205051 72 0 0.0 2.6 0.00 0.00 0.00 87 1019.9
20260831204601 72 0 0.0 2.6 0.00 0.00 0.00 85 1019.9
20260831204053 71 0 0.0 0.0 0.00 0.00 0.00 85 1019.9
20260831203553 71 0 0.0 0.0 0.00 0.00 0.00 86 1019.8
20260831203115 71 0 0.0 0.0 0.00 0.00 0.00 87 1019.9
20260831202554 71 0 0.0 0.0 0.00 0.00 0.00 88 1019.9
20260831202050 71 0 0.0 0.0 0.00 0.00 0.00 88 1020.0
20260831201608 71 0 0.0 0.0 0.00 0.00 0.00 90 1019.9
20260831201052 71 0 0.0 0.0 0.00 0.00 0.00 87 1019.9
20260831200549 71 0 0.0 0.0 0.00 0.00 0.00 87 1019.9
20260831200108 71 0 0.0 3.5 0.00 0.00 0.00 87 1020.3
20260831195550 71 0 0.9 4.3 0.00 0.00 0.00 86 1020.3
20260831195051 71 0 0.0 4.3 0.00 0.00 0.00 85 1020.6
20260831194604 72 194 0.9 4.3 0.00 0.00 0.00 84 1020.5
20260831194049 72 194 0.9 2.6 0.00 0.00 0.00 83 1020.6
20260831193553 72 0 0.0 2.6 0.00 0.00 0.00 83 1020.7
20260831193102 72 0 0.0 1.7 0.00 0.00 0.00 83 1020.7
20260831192552 72 0 0.0 1.7 0.00 0.00 0.00 81 1020.8
20260831192050 72 0 0.0 1.7 0.00 0.00 0.00 82 1020.8
20260831191557 73 0 0.0 2.6 0.00 0.00 0.00 82 1020.9
20260831191052 72 0 0.0 2.6 0.00 0.00 0.00 80 1020.9
20260831190550 73 0 0.0 2.6 0.00 0.00 0.00 83 1021.0
20260831190108 73 0 0.0 2.6 0.00 0.00 0.00 81 1021.0
20260831185550 73 0 0.0 2.6 0.00 0.00 0.00 81 1021.1
20260831185051 73 0 0.0 0.0 0.00 0.00 0.00 81 1021.1
20260831184611 73 0 0.0 0.0 0.00 0.00 0.00 81 1021.1
20260831184052 72 0 0.0 0.0 0.00 0.00 0.00 81 1021.1
20260831183549 72 0 0.0 0.0 0.00 0.00 0.00 81 1021.1
20260831183101 72 0 0.0 0.9 0.00 0.00 0.00 82 1021.1
20260831182553 72 0 0.0 0.9 0.00 0.00 0.00 84 1021.2
20260831182053 71 0 0.0 0.9 0.00 0.00 0.00 82 1021.3
20260831181602 71 0 0.0 0.9 0.00 0.00 0.00 82 1021.3
20260831181054 72 0 0.0 0.9 0.00 0.00 0.00 82 1021.2
20260831180552 71 0 0.0 0.0 0.00 0.00 0.00 82 1021.2
20260831180109 71 0 0.0 0.0 0.00 0.00 0.00 85 1021.3
20260831175552 71 0 0.0 0.0 0.00 0.00 0.00 84 1021.4
20260831175052 71 0 0.0 0.0 0.00 0.00 0.00 82 1021.4
20260831174557 72 0 0.0 0.0 0.00 0.00 0.00 82 1021.4
20260831174055 72 0 0.0 0.0 0.00 0.00 0.00 79 1021.3
20260831173552 72 0 0.0 0.0 0.00 0.00 0.00 80 1021.4
20260831173103 72 0 0.0 0.0 0.00 0.00 0.00 81 1021.6
20260831172552 72 0 0.0 0.0 0.00 0.00 0.00 84 1021.6
20260831172052 72 0 0.0 0.0 0.00 0.00 0.00 82 1021.5
20260831171605 72 0 0.0 1.7 0.00 0.00 0.00 79 1021.5
20260831171052 73 0 0.0 2.6 0.00 0.00 0.00 79 1021.5
20260831170552 73 0 0.9 2.6 0.00 0.00 0.00 79 1021.4
20260831165551 73 0 0.0 4.3 0.00 0.00 0.00 76 1021.4
20260831165051 73 298 0.0 2.6 0.00 0.00 0.00 76 1021.3
20260831164630 73 0 0.0 0.0 0.00 0.00 0.00 77 1021.5
20260831164053 72 0 0.0 0.0 0.00 0.00 0.00 77 1021.5
20260831163552 73 0 0.0 3.5 0.00 0.00 0.00 77 1021.6
20260831163104 72 0 0.0 3.5 0.00 0.00 0.00 78 1021.6
20260831162552 72 0 0.9 3.5 0.00 0.00 0.00 77 1021.5
20260831162055 73 0 0.0 3.5 0.00 0.00 0.00 74 1021.5
20260831161602 73 0 0.0 3.5 0.00 0.00 0.00 80 1021.5
20260831161054 73 0 0.0 1.7 0.00 0.00 0.00 75 1021.5
20260831160554 73 0 0.0 0.0 0.00 0.00 0.00 75 1021.4
20260831160104 72 0 0.0 0.9 0.00 0.00 0.00 80 1021.4
20260831155555 71 0 0.0 1.7 0.00 0.00 0.00 78 1021.4
20260831155054 71 0 0.0 1.7 0.00 0.00 0.00 77 1021.7
20260831154626 71 0 0.0 1.7 0.00 0.00 0.00 78 1021.7
20260831154052 71 0 0.0 0.0 0.00 0.00 0.00 82 1021.7
20260831153555 71 0 0.0 3.5 0.00 0.00 0.00 79 1021.8
20260831153106 71 0 0.0 3.5 0.00 0.00 0.00 79 1021.8
20260831152552 71 0 0.0 3.5 0.00 0.00 0.00 80 1021.8
20260831152056 70 0 0.0 0.0 0.00 0.00 0.00 81 1021.8
20260831151559 70 0 0.0 0.0 0.00 0.00 0.00 81 1022.0
20260831151052 70 0 0.0 0.0 0.00 0.00 0.00 81 1021.8
20260831150552 70 0 0.0 0.0 0.00 0.00 0.00 83 1021.8
20260831150105 70 0 0.0 0.0 0.00 0.00 0.00 82 1022.0
20260831145556 70 0 0.0 0.0 0.00 0.00 0.00 81 1021.9
20260831145052 70 0 0.0 0.0 0.00 0.00 0.00 82 1021.8
20260831144625 69 0 0.0 0.0 0.00 0.00 0.00 81 1021.8
20260831144052 69 0 0.0 0.0 0.00 0.00 0.00 81 1021.9
20260831143552 69 0 0.0 0.0 0.00 0.00 0.00 84 1021.8
20260831143109 69 0 0.0 0.0 0.00 0.00 0.00 84 1022.0
20260831142552 69 0 0.0 0.0 0.00 0.00 0.00 83 1021.8
20260831142053 69 0 0.0 0.0 0.00 0.00 0.00 83 1021.7
20260831141619 69 0 0.0 0.0 0.00 0.00 0.00 82 1021.8
20260831141055 69 0 0.0 0.0 0.00 0.00 0.00 82 1021.7
20260831140552 69 0 0.0 0.0 0.00 0.00 0.00 81 1021.7
20260831135551 69 0 0.0 0.0 0.00 0.00 0.00 82 1021.7
20260831135052 69 0 0.0 0.0 0.00 0.00 0.00 82 1021.7
20260831134605 69 0 0.0 0.0 0.00 0.00 0.00 83 1021.6
20260831134052 69 0 0.0 0.0 0.00 0.00 0.00 85 1021.8
20260831133552 69 0 0.0 0.0 0.00 0.00 0.00 85 1021.8
20260831133101 68 0 0.0 0.0 0.00 0.00 0.00 84 1021.8
20260831132552 69 0 0.0 0.0 0.00 0.00 0.00 85 1021.7
20260831132052 69 0 0.0 0.0 0.00 0.00 0.00 85 1021.7
20260831131602 69 0 0.0 0.0 0.00 0.00 0.00 86 1021.7
20260831131129 69 0 0.0 0.0 0.00 0.00 0.00 87 1021.7
20260831130552 68 0 0.0 0.0 0.00 0.00 0.00 87 1021.7
20260831130057 68 0 0.0 0.0 0.00 0.00 0.00 86 1021.6
20260831125552 67 0 0.0 0.0 0.00 0.00 0.00 87 1021.5
20260831125052 67 0 0.0 0.0 0.00 0.00 0.00 90 1021.7
20260831124603 67 0 0.0 0.0 0.00 0.00 0.00 89 1021.7
20260831124051 67 0 0.0 0.0 0.00 0.00 0.00 89 1021.7
20260831123551 67 0 0.0 0.0 0.00 0.00 0.00 88 1021.7
20260831123107 67 0 0.0 0.0 0.00 0.00 0.00 88 1021.7
20260831122556 67 0 0.0 0.0 0.00 0.00 0.00 87 1021.8
20260831122048 67 0 0.0 0.0 0.00 0.00 0.00 88 1021.7
20260831121558 67 0 0.0 0.0 0.00 0.00 0.00 88 1021.7
20260831121052 67 0 0.0 0.0 0.00 0.00 0.00 89 1021.6
20260831120551 67 0 0.0 0.9 0.00 0.00 0.00 89 1021.6
20260831120100 67 0 0.0 1.7 0.00 0.00 0.00 89 1021.7
20260831115551 67 0 0.0 2.6 0.00 0.00 0.00 89 1021.8
20260831115048 67 0 0.9 2.6 0.00 0.00 0.00 89 1021.7
20260831114605 67 0 0.0 1.7 0.00 0.00 0.00 89 1021.6
20260831114051 67 0 0.0 0.0 0.00 0.00 0.00 89 1021.6
20260831113551 66 0 0.0 0.0 0.00 0.00 0.00 89 1021.5
20260831113107 66 0 0.0 0.0 0.00 0.00 0.00 90 1021.5
20260831112554 66 0 0.0 0.0 0.00 0.00 0.00 91 1021.6
20260831112052 66 0 0.0 0.0 0.00 0.00 0.00 91 1021.6
20260831111607 65 0 0.0 0.0 0.00 0.00 0.00 91 1021.3
20260831111052 65 0 0.0 0.0 0.00 0.00 0.00 91 1021.4
20260831110554 65 0 0.0 0.0 0.00 0.00 0.00 91 1021.3
20260831110056 65 0 0.0 0.0 0.00 0.00 0.00 91 1021.2
20260831105552 65 0 0.0 0.0 0.00 0.00 0.00 91 1021.1
20260831105052 65 0 0.0 0.0 0.00 0.00 0.00 91 1020.9
20260831104605 65 0 0.0 0.0 0.00 0.00 0.00 91 1020.9
20260831104051 65 0 0.0 0.0 0.00 0.00 0.00 91 1020.8
20260831103552 65 0 0.0 0.0 0.00 0.00 0.00 91 1020.8
20260831103105 65 0 0.0 0.0 0.00 0.00 0.00 91 1020.8
20260831102554 65 0 0.0 0.0 0.00 0.00 0.00 91 1020.6
20260831102052 65 0 0.0 0.0 0.00 0.00 0.00 91 1020.7
20260831101559 65 0 0.0 0.0 0.00 0.00 0.00 91 1020.5
20260831101052 65 0 0.0 0.0 0.00 0.00 0.00 91 1020.7
20260831100551 65 0 0.0 0.0 0.00 0.00 0.00 90 1020.7
20260831100107 65 0 0.0 0.0 0.00 0.00 0.00 90 1020.8
20260831095551 65 0 0.0 0.0 0.00 0.00 0.00 90 1020.8
20260831095052 65 0 0.0 0.0 0.00 0.00 0.00 90 1020.8
20260831094607 66 0 0.0 2.6 0.00 0.00 0.00 91 1020.9
20260831094056 65 0 0.0 2.6 0.00 0.00 0.00 91 1020.9
20260831093552 65 0 0.9 2.6 0.00 0.00 0.00 91 1020.7
20260831093101 65 65 0.0 0.0 0.00 0.00 0.00 91 1020.7
20260831092552 65 0 0.0 0.0 0.00 0.00 0.00 91 1020.7
20260831092052 65 0 0.0 0.0 0.00 0.00 0.00 92 1020.6
20260831091600 65 0 0.0 0.0 0.00 0.00 0.00 92 1020.4
20260831091053 65 0 0.0 0.0 0.00 0.00 0.00 91 1020.5
20260831090553 65 0 0.0 0.0 0.00 0.00 0.00 91 1020.6
20260831090059 65 0 0.0 0.0 0.00 0.00 0.00 91 1020.5
20260831085554 65 0 0.0 0.0 0.00 0.00 0.00 92 1020.4
20260831085053 65 0 0.0 0.0 0.00 0.00 0.00 91 1020.3
20260831084611 65 0 0.0 0.0 0.00 0.00 0.00 91 1020.3
20260831084052 64 0 0.0 0.0 0.00 0.00 0.00 91 1020.4
20260831083553 65 0 0.0 0.0 0.00 0.00 0.00 90 1020.3
20260831083110 65 0 0.0 0.0 0.00 0.00 0.00 91 1020.3
20260831082553 65 0 0.0 0.0 0.00 0.00 0.00 91 1020.5
20260831082053 65 0 0.0 0.0 0.00 0.00 0.00 91 1020.7
20260831081604 65 0 0.0 0.0 0.00 0.00 0.00 91 1020.7
20260831081053 65 0 0.0 0.0 0.00 0.00 0.00 91 1020.7
20260831080552 65 0 0.0 0.0 0.00 0.00 0.00 90 1020.7
20260831080056 65 0 0.0 0.0 0.00 0.00 0.00 90 1020.5
20260831075553 65 0 0.0 0.0 0.00 0.00 0.00 90 1020.5
20260831075053 66 0 0.0 0.0 0.00 0.00 0.00 90 1020.5
20260831074616 66 0 0.0 0.0 0.00 0.00 0.00 90 1020.5
20260831074052 66 0 0.0 0.0 0.00 0.00 0.00 90 1020.5
20260831073553 66 0 0.0 0.0 0.00 0.00 0.00 90 1020.6
20260831073059 66 0 0.0 0.0 0.00 0.00 0.00 90 1020.6
20260831072552 66 0 0.0 0.0 0.00 0.00 0.00 89 1020.6
20260831072054 66 0 0.0 0.0 0.00 0.00 0.00 89 1020.5
20260831071602 67 0 0.0 0.0 0.00 0.00 0.00 89 1020.5
20260831071052 67 0 0.0 0.0 0.00 0.00 0.00 88 1020.5
20260831070553 67 0 0.0 0.0 0.00 0.00 0.00 88 1020.6
20260831070108 67 0 0.0 2.6 0.00 0.00 0.00 87 1020.7
20260831065552 68 0 0.0 2.6 0.00 0.00 0.00 87 1020.5
20260831065052 68 0 0.0 2.6 0.00 0.00 0.00 87 1020.4
20260831064604 68 0 0.0 0.9 0.00 0.00 0.00 88 1020.6
20260831064051 68 0 0.0 1.7 0.00 0.00 0.00 88 1020.7
20260831063553 68 0 0.0 1.7 0.00 0.00 0.00 88 1020.7
20260831063055 68 0 0.0 1.7 0.00 0.00 0.00 88 1020.7
20260831062552 68 0 0.0 0.9 0.00 0.00 0.00 87 1020.6
20260831062056 68 0 0.0 1.7 0.00 0.00 0.00 87 1020.7
20260831061555 69 0 0.0 1.7 0.00 0.00 0.00 86 1020.6
20260831061049 69 34 0.0 1.7 0.00 0.00 0.00 86 1020.6
20260831060552 69 13 0.0 1.7 0.00 0.00 0.00 86 1020.7
20260831060109 69 0 0.0 1.7 0.00 0.00 0.00 86 1020.7
20260831055551 69 323 0.0 0.9 0.00 0.00 0.00 86 1020.7
20260831055050 69 0 0.0 0.0 0.00 0.00 0.00 86 1020.7
20260831054604 69 0 0.0 0.0 0.00 0.00 0.00 86 1020.7
20260831054052 69 0 0.0 0.0 0.00 0.00 0.00 86 1020.8
20260831053556 69 0 0.0 0.9 0.00 0.00 0.00 86 1020.8
20260831053057 69 0 0.0 0.9 0.00 0.00 0.00 86 1020.8
20260831052549 69 0 0.0 0.0 0.00 0.00 0.00 86 1020.8
20260831052051 69 0 0.0 0.0 0.00 0.00 0.00 85 1020.7
20260831051611 69 0 0.0 0.0 0.00 0.00 0.00 84 1020.6
20260831051052 69 0 0.0 0.0 0.00 0.00 0.00 85 1020.6
20260831050552 69 0 0.0 0.0 0.00 0.00 0.00 85 1020.5
20260831050100 69 0 0.0 0.0 0.00 0.00 0.00 85 1020.7
20260831045552 69 0 0.0 0.9 0.00 0.00 0.00 85 1020.6
20260831045054 69 0 0.0 0.9 0.00 0.00 0.00 84 1020.6
20260831044613 70 0 0.0 0.0 0.00 0.00 0.00 83 1020.5
20260831044052 70 0 0.0 0.9 0.00 0.00 0.00 81 1020.6
20260831043551 70 0 0.0 1.7 0.00 0.00 0.00 82 1020.7
20260831043054 71 0 0.0 1.7 0.00 0.00 0.00 80 1020.7
20260831042554 70 0 0.0 0.0 0.00 0.00 0.00 82 1020.8
20260831042054 70 0 0.0 0.9 0.00 0.00 0.00 82 1020.7
20260831041602 71 0 0.0 1.7 0.00 0.00 0.00 82 1020.7
20260831041052 71 0 0.0 3.5 0.00 0.00 0.00 78 1020.7
20260831040552 71 252 0.9 3.5 0.00 0.00 0.00 79 1020.7
20260831040055 71 0 0.0 2.6 0.00 0.00 0.00 80 1020.8
20260831035551 70 0 0.0 1.7 0.00 0.00 0.00 83 1020.8
20260831035051 70 0 0.0 0.0 0.00 0.00 0.00 83 1020.9
20260831034607 70 0 0.0 0.0 0.00 0.00 0.00 81 1020.8
20260831034051 71 0 0.0 2.6 0.00 0.00 0.00 80 1020.8
20260831033551 71 0 0.0 2.6 0.00 0.00 0.00 80 1020.8
20260831033116 71 0 0.0 2.6 0.00 0.00 0.00 80 1020.8
20260831032553 71 0 0.0 4.3 0.00 0.00 0.00 79 1020.8
20260831032054 71 0 0.0 4.3 0.00 0.00 0.00 79 1020.8
20260831031555 71 0 0.9 2.6 0.00 0.00 0.00 79 1020.9
20260831031052 71 235 0.0 2.6 0.00 0.00 0.00 79 1021.0
20260831030552 71 0 0.0 2.6 0.00 0.00 0.00 79 1020.9
20260831030106 72 209 0.0 1.7 0.00 0.00 0.00 79 1020.9
20260831025553 71 0 0.0 0.0 0.00 0.00 0.00 79 1020.9
20260831025053 71 0 0.0 0.0 0.00 0.00 0.00 82 1020.8
20260831024621 71 0 0.0 0.0 0.00 0.00 0.00 82 1021.0
20260831024052 71 0 0.0 0.9 0.00 0.00 0.00 83 1020.8
20260831023554 70 0 0.0 0.9 0.00 0.00 0.00 83 1020.9
20260831023103 70 0 0.0 0.9 0.00 0.00 0.00 84 1021.0
20260831022556 71 0 0.0 0.9 0.00 0.00 0.00 83 1020.9
20260831022053 71 0 0.0 0.9 0.00 0.00 0.00 82 1021.0
20260831021607 71 0 0.0 0.9 0.00 0.00 0.00 82 1021.1
20260831021054 71 0 0.0 0.9 0.00 0.00 0.00 83 1021.1
20260831020557 71 0 0.0 1.7 0.00 0.00 0.00 82 1021.1
20260831020110 72 0 0.0 1.7 0.00 0.00 0.00 81 1021.1
20260831015552 72 0 0.0 0.9 0.00 0.00 0.00 80 1021.2
20260831015052 71 0 0.0 0.9 0.00 0.00 0.00 81 1021.1
20260831014604 72 0 0.0 1.7 0.00 0.00 0.00 80 1021.1
20260831014053 72 0 0.0 1.7 0.00 0.00 0.00 80 1021.0
20260831013553 72 25 0.0 1.7 0.00 0.00 0.00 81 1021.0
20260831013058 71 0 0.0 0.9 0.00 0.00 0.00 81 1021.0
20260831012553 72 0 0.0 4.3 0.00 0.00 0.00 80 1021.0
20260831012053 71 0 0.0 4.3 0.00 0.00 0.00 82 1021.0
20260831011557 71 0 0.0 4.3 0.00 0.00 0.00 85 1020.9
20260831011052 71 0 0.0 0.0 0.00 0.00 0.00 84 1020.7
20260831010552 72 0 0.0 0.0 0.00 0.00 0.00 82 1020.7
20260831010109 72 0 0.0 0.9 0.00 0.00 0.00 81 1020.5
20260831005552 71 0 0.0 0.9 0.00 0.00 0.00 84 1020.6
20260831005055 71 0 0.0 0.0 0.00 0.00 0.00 84 1020.6
20260831004606 71 0 0.0 0.0 0.00 0.00 0.00 84 1020.6
20260831004055 71 0 0.0 0.0 0.00 0.00 0.00 85 1020.5
20260831003554 71 0 0.0 0.0 0.00 0.00 0.00 85 1020.4
20260831003103 71 0 0.0 0.0 0.00 0.00 0.00 84 1020.2
20260831002551 72 0 0.0 0.0 0.00 0.00 0.00 83 1020.1
20260831002048 72 0 0.0 0.0 0.00 0.00 0.00 83 1020.0
20260831001602 72 0 0.0 0.0 0.00 0.00 0.00 81 1019.9
20260831001049 72 0 0.0 0.0 0.00 0.00 0.00 81 1019.9
20260831000549 72 0 0.0 0.0 0.00 0.00 0.00 80 1019.8
20260831000059 72 0 0.0 0.0 0.00 0.00 0.00 81 1019.8
20260830235551 72 0 0.0 0.0 0.00 0.00 0.00 81 1019.8
20260830235048 72 0 0.0 0.0 0.00 0.00 0.00 80 1019.8
20260830234605 72 0 0.0 0.0 0.00 0.00 0.00 81 1019.9
20260830234051 72 0 0.0 0.0 0.00 0.00 0.00 79 1019.7
20260830233551 72 0 0.0 0.0 0.00 0.00 0.00 81 1019.8
20260830233055 72 0 0.0 0.0 0.00 0.00 0.00 80 1019.7
20260830232551 73 0 0.0 0.0 0.00 0.00 0.00 80 1019.7
20260830232049 72 0 0.0 0.0 0.00 0.00 0.00 81 1019.7
20260830231556 73 0 0.0 0.0 0.00 0.00 0.00 82 1019.7
20260830231048 74 0 0.0 1.7 0.00 0.00 0.00 81 1019.7
20260830230551 74 0 0.0 1.7 0.00 0.00 0.00 77 1019.7